Location: Domont
(49.0278°N, 2.3264°E)
Time: 02:07:44
(UTC+00:00)

XW-2A - Pass Details

Date: 04 July 2022
Orbit: 396 x 406 km, 97.2° (Epoch: 08 August)

Event Time Altitude Azimuth Distance (km) Brightness Sun altitude
Exits shadow 21:46:18 - 215° (SW) 2,074 ? -12.6°
Reaches altitude 10° 21:48:33 10° 242° (WSW) 1,444 ? -12.8°
Maximum altitude 21:49:58 13° 269° (W) 1,302 ? -12.9°
Drops below altitude 10° 21:51:24 10° 297° (WNW) 1,450 ? -13.0°
Sets 21:54:18 0° 328° (NNW) 2,316 ? -13.3°
